COSMOS 2251 DEB

Satellite information

Favourite Embed

Satellite Type and Status

DEBRISIN ORBIT

Key statistics

Satellite COSMOS 2251 DEB at a glance.

Uptime

11650

Days in orbit

Revolutions

≈ 14.4

Per day

Orbit

LEO

Low Earth Orbit

Inclination

74.0

Latest

Satellite identification and parameters

Extended collection of information and parameters for COSMOS 2251 DEB.

Object identification

Identified? True

Debris? True

Object name: COSMOS 2251 DEB

International designator: 1993-036AAW

Object number (NORAD): 34793

Object ID (CCSDS): 34793

Country: COMMONWEALTH OF INDEPENDENT STATES (CIS)

Current information (Y/N): Y

RCS size: SMALL

Orbital parameters

Period: 100.122 minutes

Inclination: 74.0017 deg

SMA: 7142.46 km

Apoapsis: 801.093 km

Periapsis: 727.557 km

RAAN: 293.1718 deg

Eccentricy: 0.0051478

Argument of periapsis: 139.9484 deg

Mean anomaly: 344.9241 deg

Mean motion: 14.38238906 rev/day

Mean motion (dot): 0.0000118 rev/day2

B* drag term: 0.00039064 1/REarth

Two-line elements (TLE)

Creation date: May 8, 2025, 10:56 p.m.

Reference frame: TEME

Reference center: EARTH

Epoch: May 8, 2025, 3:08 p.m. UTC

TLE line 0: 0 COSMOS 2251 DEB

TLE line 1: 1 34793U 93036AAW 25128.63065742 .00001180 00000-0 39064-3 0 9993

TLE line 2: 2 34793 74.0017 293.1718 0051478 139.9484 344.9241 14.38238906842455

Live tracking on map

Real-time ground track for satellite COSMOS 2251 DEB.

In-orbit conjunctions

A list of the most updated potential collisions computed for object COSMOS 2251 DEB.

Target Orbit TCA Probability of collision Miss distance Type
CZ-6A DEB LEO 2025-03-16 00:40:36 0.0005145036 47.0 (m) DEBRIS

Associated space launch

Military communications satellite. Destroyed in a collision with Iridium 33.

COSMOS 2251 DEB was lifted into orbit during the mission ‘Kosmos-3M | Strela-2M 51’, on board a Kosmos-3M space rocket.

The launch took place on June 16, 1993, 4:17 a.m. from 132/1 (132L).

For more information about the launch, click the button.

Launch to space Kosmos-3M | Strela-2M 51
Kosmos-3M | Strela-2M 51

Agency: N/A

Status: Launch Successful

Launch date: June 16, 1993, 4:17 a.m. UTC

Rocket: Kosmos-3M

Launch pad: 132/1 (132L)

Location: Plesetsk Cosmodrome, Russian Federation

...

Latest news about this satellite

There are no fresh news available about this satellite. Check back as we update our databases every day.


Newsletter sign-up

Weekly statistics, charts and insights to help you stay on top of the space industry.